sat.trackr.live / text

‹ back to catalog

STARLINK-36167

NORAD 67011 · 2025-293J

PAYLOAD ACTIVE UNKNOWN

§ Identity

Operator
Country
US
Launch date
2025-12-10
Launch site
AFWTR
Launch vehicle
Mass (kg)
RCS (m²)

Purposes: comms

External: N2YO · Heavens-Above · Gunter

§ Orbital elements

Epoch: 2026-05-24T16:13:37.514496Z

Period
96.11 min
Inclination
70.0007°
Eccentricity
0.0003006
Mean motion
14.98329591 rev/d
Perigee alt
570.0 km
Apogee alt
574.1 km
Semi-major
6,950.2 km
B*
-1.2334e-4
RAAN
262.7120°
Arg perigee
267.8672°
Mean anomaly
92.2143°
Rev number
2,627

§ Raw data

STARLINK-361671 67011U 25293J   26144.67612864 -.00001564  00000+0 -12334-3 0  99962 67011  70.0007 262.7120 0003006 267.8672  92.2143 14.98329591 26277

JSON: /api/v1/satellites/67011 · /tle

For live sub-satellite position, see the globe view (requires WebGL).

§ Visibility from observer

Set your observer location to see the next 7 days of passes ≥ 10°. The values pass through the URL so the page stays shareable.

No JS? Fill the form by hand. The geolocation button needs JavaScript.